Location: Proctor
(47.8934°N, 114.3048°W)
Time: 16:56:42
(UTC+00:00)

Transit 4A - Pass Details

Date: 13 May 2025
Orbit: 866 x 975 km, 66.8° (Epoch: 13 June)

Event Time Altitude Azimuth Distance (km) Brightness Sun altitude
Rises 08:51:02 0° 316° (NW) 3,634 11.3 -21.4°
Reaches altitude 10° 08:55:03 10° 341° (NNW) 2,665 11.0 -21.2°
Maximum altitude 08:58:14 14° 12° (NNE) 2,350 11.0 -21.0°
Drops below altitude 10° 09:01:24 10° 43° (NE) 2,623 11.3 -20.8°
Sets 09:05:17 0° 68° (ENE) 3,538 11.6 -20.5°
